• In Uzbekistan
  • List of Countries
  • For 7 days
  • Water Temperature
  • Satellite Maps
  • Weather Map
  • Weather Widgets
  • user-avatar
    Login

    Hourly Weather Podelsk

    Today, 24 June, Sunday

    Time Temperature Precipitation Wind Pressure Humidity
    00:00 +18°C° 0 mm 1 mps 749 mmHg 65%
    01:00 +15°C° 0 mm 0 mps 749 mmHg 67%
    02:00 +15°C° 0 mm 0 mps 750 mmHg 68%
    03:00 +15°C° 0 mm 0 mps 750 mmHg 69%
    04:00 +16°C° 0 mm 0 mps 750 mmHg 69%
    05:00 +17°C° 0 mm 0 mps 750 mmHg 65%
    06:00 +19°C° 0 mm 0 mps 751 mmHg 62%
    07:00 +21°C° 0 mm 0 mps 751 mmHg 58%
    08:00 +25°C° 0 mm 1 mps 751 mmHg 53%
    09:00 +27°C° 0 mm 1 mps 751 mmHg 49%
    10:00 +29°C° 0 mm 1 mps 751 mmHg 44%
    11:00 +30°C° 0 mm 1 mps 751 mmHg 43%
    12:00 +30°C° 0 mm 1 mps 751 mmHg 42%
    13:00 +31°C° 0 mm 1 mps 751 mmHg 41%
    14:00 +31°C° 0 mm 1 mps 751 mmHg 41%
    15:00 +31°C° 0 mm 1 mps 751 mmHg 40%
    16:00 +31°C° 0 mm 1 mps 751 mmHg 40%
    17:00 +30°C° 0 mm 1 mps 751 mmHg 43%
    18:00 +30°C° 0 mm 1 mps 751 mmHg 46%
    19:00 +29°C° 0 mm 1 mps 751 mmHg 49%
    20:00 +27°C° 0 mm 1 mps 751 mmHg 54%
    21:00 +25°C° 0 mm 1 mps 751 mmHg 59%
    22:00 +23°C° 0 mm 1 mps 752 mmHg 65%
    23:00 +22°C° 0 mm 1 mps 752 mmHg 66%

    Tomorrow, 25 June, Monday

    Time Temperature Precipitation Wind Pressure Humidity
    00:00 +21°C° 0 mm 1 mps 752 mmHg 67%
    01:00 +20°C° 0 mm 1 mps 752 mmHg 68%
    02:00 +20°C° 0 mm 1 mps 752 mmHg 68%
    03:00 +17°C° 0 mm 0 mps 752 mmHg 68%
    04:00 +17°C° 0 mm 0 mps 753 mmHg 67%
    05:00 +19°C° 0 mm 0 mps 753 mmHg 61%
    06:00 +21°C° 0 mm 0 mps 753 mmHg 54%
    07:00 +24°C° 0 mm 0 mps 753 mmHg 47%
    08:00 +26°C° 0 mm 0 mps 753 mmHg 42%
    09:00 +28°C° 0 mm 0 mps 753 mmHg 36%
    10:00 +32°C° 0 mm 1 mps 753 mmHg 31%
    11:00 +33°C° 0 mm 1 mps 753 mmHg 29%
    12:00 +34°C° 0 mm 1 mps 753 mmHg 27%
    13:00 +35°C° 0 mm 1 mps 753 mmHg 26%
    14:00 +35°C° 0 mm 1 mps 752 mmHg 25%
    15:00 +35°C° 0 mm 1 mps 752 mmHg 25%
    16:00 +35°C° 0 mm 1 mps 752 mmHg 24%
    17:00 +34°C° 0 mm 1 mps 752 mmHg 28%
    18:00 +34°C° 0 mm 1 mps 752 mmHg 31%
    19:00 +33°C° 0 mm 1 mps 752 mmHg 35%
    20:00 +31°C° 0 mm 1 mps 752 mmHg 41%
    21:00 +28°C° 0 mm 1 mps 752 mmHg 47%
    22:00 +26°C° 0 mm 1 mps 752 mmHg 52%
    23:00 +25°C° 0 mm 1 mps 752 mmHg 57%

    Day after tomorrow, 26 June, Tuesday

    Time Temperature Precipitation Wind Pressure Humidity
    00:00 +24°C° 0 mm 1 mps 752 mmHg 62%
    01:00 +23°C° 0 mm 1 mps 752 mmHg 67%
    02:00 +23°C° 0.4 mm 1 mps 752 mmHg 74%
    03:00 +22°C° 0.4 mm 1 mps 752 mmHg 81%
    04:00 +22°C° 0.4 mm 1 mps 753 mmHg 88%
    05:00 +23°C° 0.1 mm 1 mps 753 mmHg 85%
    06:00 +25°C° 0.1 mm 1 mps 753 mmHg 82%
    07:00 +26°C° 0.1 mm 1 mps 753 mmHg 78%
    08:00 +28°C° 0.2 mm 1 mps 753 mmHg 70%
    09:00 +29°C° 0.2 mm 2 mps 753 mmHg 62%
    10:00 +31°C° 0.2 mm 2 mps 753 mmHg 54%
    11:00 +32°C° 0 mm 2 mps 753 mmHg 49%
    12:00 +32°C° 0 mm 2 mps 753 mmHg 44%
    13:00 +34°C° 0 mm 2 mps 753 mmHg 39%
    14:00 +34°C° 0 mm 2 mps 753 mmHg 38%
    15:00 +34°C° 0 mm 2 mps 753 mmHg 38%
    16:00 +34°C° 0 mm 3 mps 753 mmHg 38%
    17:00 +34°C° 0 mm 2 mps 753 mmHg 40%
    18:00 +32°C° 0 mm 2 mps 753 mmHg 43%
    19:00 +31°C° 0 mm 2 mps 753 mmHg 46%
    20:00 +29°C° 0 mm 1 mps 753 mmHg 54%
    21:00 +27°C° 0 mm 1 mps 753 mmHg 61%
    22:00 +25°C° 0 mm 1 mps 754 mmHg 69%
    23:00 +24°C° 0 mm 1 mps 753 mmHg 73%

    27 June, Wednesday

    Time Temperature Precipitation Wind Pressure Humidity
    00:00 +23°C° 0 mm 1 mps 753 mmHg 77%
    01:00 +22°C° 0 mm 1 mps 753 mmHg 81%
    02:00 +22°C° 0 mm 1 mps 754 mmHg 82%
    03:00 +20°C° 0 mm 0 mps 754 mmHg 83%
    04:00 +20°C° 0 mm 0 mps 754 mmHg 85%
    05:00 +21°C° 0 mm 0 mps 754 mmHg 78%
    06:00 +25°C° 0 mm 1 mps 754 mmHg 72%
    07:00 +27°C° 0 mm 1 mps 754 mmHg 65%
    08:00 +27°C° 0.6 mm 1 mps 754 mmHg 63%
    09:00 +28°C° 0.6 mm 1 mps 753 mmHg 60%
    10:00 +29°C° 0.6 mm 2 mps 753 mmHg 58%
    11:00 +29°C° 0.2 mm 2 mps 753 mmHg 54%
    12:00 +30°C° 0.2 mm 2 mps 753 mmHg 49%
    13:00 +31°C° 0.2 mm 3 mps 753 mmHg 44%
    14:00 +31°C° 0 mm 3 mps 753 mmHg 43%
    15:00 +31°C° 0 mm 3 mps 753 mmHg 41%
    16:00 +31°C° 0 mm 3 mps 753 mmHg 40%
    17:00 +30°C° 0 mm 3 mps 753 mmHg 40%
    18:00 +30°C° 0 mm 2 mps 753 mmHg 39%
    19:00 +29°C° 0 mm 2 mps 753 mmHg 39%
    20:00 +27°C° 0 mm 2 mps 753 mmHg 44%
    21:00 +25°C° 0 mm 2 mps 753 mmHg 50%
    22:00 +21°C° 0 mm 2 mps 753 mmHg 55%
    23:00 +20°C° 0 mm 2 mps 753 mmHg 58%

    28 June, Thursday

    Time Temperature Precipitation Wind Pressure Humidity
    00:00 +19°C° 0 mm 2 mps 753 mmHg 60%
    01:00 +18°C° 0 mm 2 mps 753 mmHg 63%
    02:00 +18°C° 0 mm 2 mps 754 mmHg 65%
    03:00 +17°C° 0 mm 2 mps 754 mmHg 66%
    04:00 +17°C° 0 mm 2 mps 754 mmHg 68%
    05:00 +18°C° 0 mm 2 mps 754 mmHg 64%
    06:00 +20°C° 0 mm 2 mps 754 mmHg 60%
    07:00 +21°C° 0 mm 2 mps 754 mmHg 56%
    08:00 +22°C° 0 mm 3 mps 754 mmHg 51%
    09:00 +24°C° 0 mm 3 mps 754 mmHg 46%
    10:00 +25°C° 0 mm 4 mps 754 mmHg 42%
    11:00 +26°C° 0 mm 4 mps 754 mmHg 38%
    12:00 +26°C° 0 mm 4 mps 754 mmHg 35%
    13:00 +27°C° 0 mm 4 mps 754 mmHg 31%
    14:00 +27°C° 0 mm 5 mps 755 mmHg 33%
    15:00 +26°C° 0 mm 5 mps 755 mmHg 35%
    16:00 +26°C° 0 mm 5 mps 755 mmHg 38%
    17:00 +25°C° 0 mm 4 mps 755 mmHg 40%
    18:00 +23°C° 0 mm 4 mps 755 mmHg 42%
    19:00 +22°C° 0 mm 3 mps 755 mmHg 45%
    20:00 +20°C° 0 mm 3 mps 756 mmHg 49%
    21:00 +18°C° 0 mm 2 mps 756 mmHg 53%
    22:00 +17°C° 0 mm 2 mps 756 mmHg 57%
    23:00 +16°C° 0 mm 2 mps 756 mmHg 60%

    29 June, Friday

    Time Temperature Precipitation Wind Pressure Humidity
    00:00 +15°C° 0 mm 1 mps 757 mmHg 63%
    01:00 +13°C° 0 mm 1 mps 757 mmHg 66%
    02:00 +13°C° 0 mm 1 mps 757 mmHg 67%
    03:00 +13°C° 0 mm 1 mps 757 mmHg 69%
    04:00 +12°C° 0 mm 1 mps 758 mmHg 71%
    05:00 +14°C° 0 mm 2 mps 758 mmHg 66%
    06:00 +16°C° 0 mm 2 mps 758 mmHg 61%
    07:00 +17°C° 0 mm 2 mps 758 mmHg 56%
    08:00 +18°C° 0 mm 2 mps 758 mmHg 51%
    09:00 +19°C° 0 mm 3 mps 758 mmHg 45%
    10:00 +20°C° 0 mm 3 mps 758 mmHg 39%
    11:00 +21°C° 0 mm 3 mps 758 mmHg 36%
    12:00 +22°C° 0 mm 3 mps 758 mmHg 32%
    13:00 +22°C° 0 mm 3 mps 758 mmHg 28%
    14:00 +24°C° 0 mm 3 mps 758 mmHg 28%
    15:00 +24°C° 0 mm 3 mps 758 mmHg 27%
    16:00 +24°C° 0 mm 2 mps 758 mmHg 26%
    17:00 +24°C° 0 mm 2 mps 758 mmHg 28%
    18:00 +24°C° 0 mm 2 mps 757 mmHg 30%
    19:00 +23°C° 0 mm 1 mps 757 mmHg 32%
    20:00 +21°C° 0 mm 1 mps 757 mmHg 38%
    21:00 +19°C° 0 mm 1 mps 757 mmHg 45%
    22:00 +14°C° 0 mm 0 mps 757 mmHg 51%
    23:00 +15°C° 0 mm 1 mps 757 mmHg 53%
    Show more